Time,TemperatureF,DewpointF,PressureIn,WindDirection,WindDirectionDegrees,WindSpeedMPH,WindSpeedGustMPH,Humidity,HourlyPrecipIn,Conditions,Clouds,dailyrainin,SoftwareType,DateUTC
2013-01-25 00:01:00,19.0,6.0,-100.00,SSW,200,12.0,16.0,54,0.00,,,-99.99,,2013-01-25 06:01:00,
2013-01-25 00:02:00,19.0,3.0,-100.00,South,190,9.0,12.0,48,0.00,,,-99.99,,2013-01-25 06:02:00,
2013-01-25 00:11:00,19.0,5.0,-100.00,SSW,195,11.0,15.0,53,0.00,,,-99.99,,2013-01-25 06:11:00,
2013-01-25 00:21:00,19.0,6.0,-100.00,SSW,200,12.0,16.0,54,0.00,,,-99.99,,2013-01-25 06:21:00,
2013-01-25 00:32:00,19.0,6.0,-100.00,SSW,200,12.0,16.0,54,0.00,,,-99.99,,2013-01-25 06:32:00,
2013-01-25 00:42:00,19.0,6.0,-100.00,SSW,200,12.0,16.0,54,0.00,,,-99.99,,2013-01-25 06:42:00,
2013-01-25 00:51:00,19.0,6.0,-100.00,SSW,200,12.0,16.0,54,0.00,,,-99.99,,2013-01-25 06:51:00,
2013-01-25 01:11:00,18.0,9.0,-100.00,SSW,200,12.0,16.0,66,0.00,,,-99.99,,2013-01-25 07:11:00,
2013-01-25 01:21:00,18.0,10.0,-100.00,SSW,210,11.0,16.0,68,0.00,,,-99.99,,2013-01-25 07:21:00,
2013-01-25 01:31:00,18.0,10.0,-100.00,SSW,210,11.0,13.0,70,0.00,,,-99.99,,2013-01-25 07:31:00,
2013-01-25 01:32:00,18.0,10.0,-100.00,SSW,210,11.0,16.0,68,0.00,,,-99.99,,2013-01-25 07:32:00,
2013-01-25 01:42:00,18.0,10.0,-100.00,SSW,210,11.0,16.0,68,0.00,,,-99.99,,2013-01-25 07:42:00,
2013-01-25 01:51:00,18.0,10.0,-100.00,SSW,210,11.0,13.0,70,0.00,,,-99.99,,2013-01-25 07:51:00,
2013-01-25 02:01:00,18.0,10.0,-100.00,SSW,210,11.0,13.0,70,0.00,,,-99.99,,2013-01-25 08:01:00,
2013-01-25 02:11:00,18.0,10.0,-100.00,SSW,210,11.0,13.0,70,0.00,,,-99.99,,2013-01-25 08:11:00,
2013-01-25 02:21:00,18.0,10.0,-100.00,SSW,210,11.0,13.0,70,0.00,,,-99.99,,2013-01-25 08:21:00,
2013-01-25 02:52:00,16.0,9.0,-100.00,SSW,210,7.0,9.0,75,0.00,,,-99.99,,2013-01-25 08:52:00,
2013-01-25 03:02:00,16.0,9.0,-100.00,SSW,210,7.0,9.0,75,0.00,,,-99.99,,2013-01-25 09:02:00,
2013-01-25 03:11:00,15.0,9.0,-100.00,SSW,210,7.0,9.0,77,0.00,,,-99.99,,2013-01-25 09:11:00,
2013-01-25 03:21:00,15.0,9.0,-100.00,SW,230,7.0,9.0,77,0.00,,,-99.99,,2013-01-25 09:21:00,
2013-01-25 03:31:00,15.0,9.0,-100.00,SSW,210,7.0,10.0,79,0.00,,,-99.99,,2013-01-25 09:31:00,
2013-01-25 03:41:00,15.0,9.0,-100.00,SSW,210,7.0,10.0,79,0.00,,,-99.99,,2013-01-25 09:41:00,
2013-01-25 03:51:00,15.0,10.0,-100.00,SW,230,5.0,8.0,79,0.00,,,-99.99,,2013-01-25 09:51:00,
2013-01-25 04:02:00,15.0,10.0,-100.00,SW,230,5.0,8.0,79,0.00,,,-99.99,,2013-01-25 10:02:00,
2013-01-25 04:12:00,15.0,10.0,-100.00,SW,230,5.0,8.0,79,0.00,,,-99.99,,2013-01-25 10:12:00,
2013-01-25 04:21:00,13.0,8.0,-100.00,WSW,250,7.0,7.0,81,0.00,,,-99.99,,2013-01-25 10:21:00,
2013-01-25 04:32:00,13.0,9.0,-100.00,WSW,250,7.0,9.0,83,0.00,,,-99.99,,2013-01-25 10:32:00,
2013-01-25 04:42:00,13.0,9.0,-100.00,WSW,250,7.0,9.0,83,0.00,,,-99.99,,2013-01-25 10:42:00,
2013-01-25 04:52:00,13.0,9.0,-100.00,SW,235,8.0,9.0,84,0.00,,,-99.99,,2013-01-25 10:52:00,
2013-01-25 05:02:00,13.0,9.0,-100.00,SW,235,8.0,9.0,84,0.00,,,-99.99,,2013-01-25 11:02:00,
2013-01-25 05:11:00,13.0,9.0,-100.00,SW,235,8.0,9.0,84,0.00,,,-99.99,,2013-01-25 11:11:00,
2013-01-25 05:22:00,13.0,9.0,-100.00,SW,235,9.0,11.0,84,0.00,,,-99.99,,2013-01-25 11:22:00,
2013-01-25 05:32:00,13.0,9.0,-100.00,SW,235,10.0,11.0,84,0.00,,,-99.99,,2013-01-25 11:32:00,
2013-01-25 05:42:00,13.0,9.0,-100.00,SW,235,10.0,11.0,84,0.00,,,-99.99,,2013-01-25 11:42:00,
2013-01-25 05:52:00,13.0,9.0,-100.00,WSW,240,11.0,12.0,85,0.00,,,-99.99,,2013-01-25 11:52:00,
2013-01-25 06:02:00,13.0,9.0,-100.00,WSW,240,11.0,12.0,85,0.00,,,-99.99,,2013-01-25 12:02:00,
2013-01-25 06:11:00,14.0,10.0,-100.00,WSW,245,12.0,14.0,84,0.00,,,-99.99,,2013-01-25 12:11:00,
2013-01-25 06:22:00,14.0,10.0,-100.00,WSW,245,12.0,14.0,84,0.00,,,-99.99,,2013-01-25 12:22:00,
2013-01-25 06:32:00,14.0,10.0,-100.00,WSW,245,13.0,15.0,84,0.00,,,-99.99,,2013-01-25 12:32:00,
2013-01-25 06:42:00,14.0,10.0,-100.00,WSW,245,13.0,15.0,84,0.00,,,-99.99,,2013-01-25 12:42:00,
2013-01-25 06:52:00,14.0,10.0,-100.00,WSW,245,13.0,16.0,83,0.00,,,-99.99,,2013-01-25 12:52:00,
2013-01-25 07:02:00,14.0,10.0,-100.00,WSW,245,13.0,16.0,83,0.00,,,-99.99,,2013-01-25 13:02:00,
2013-01-25 07:11:00,14.0,10.0,-100.00,WSW,245,13.0,16.0,83,0.00,,,-99.99,,2013-01-25 13:11:00,
2013-01-25 07:22:00,13.0,9.0,-100.00,WSW,245,12.0,15.0,83,0.00,,,-99.99,,2013-01-25 13:22:00,
2013-01-25 07:32:00,13.0,9.0,-100.00,WSW,245,12.0,15.0,83,0.00,,,-99.99,,2013-01-25 13:32:00,
2013-01-25 07:42:00,13.0,9.0,-100.00,WSW,245,12.0,15.0,83,0.00,,,-99.99,,2013-01-25 13:42:00,
2013-01-25 07:53:00,12.0,8.0,-100.00,SW,235,7.0,9.0,84,0.00,,,-99.99,,2013-01-25 13:53:00,
2013-01-25 08:03:00,12.0,8.0,-100.00,SW,235,7.0,9.0,84,0.00,,,-99.99,,2013-01-25 14:03:00,
2013-01-25 08:12:00,12.0,8.0,-100.00,SW,235,7.0,9.0,84,0.00,,,-99.99,,2013-01-25 14:12:00,
2013-01-25 08:23:00,12.0,8.0,-100.00,WSW,245,8.0,10.0,84,0.00,,,-99.99,,2013-01-25 14:23:00,
2013-01-25 08:32:00,13.0,9.0,-100.00,WSW,240,9.0,12.0,84,0.00,,,-99.99,,2013-01-25 14:32:00,
2013-01-25 08:42:00,13.0,9.0,-100.00,WSW,240,9.0,12.0,84,0.00,,,-99.99,,2013-01-25 14:42:00,
2013-01-25 08:53:00,13.0,9.0,-100.00,WSW,240,9.0,12.0,84,0.00,,,-99.99,,2013-01-25 14:53:00,
2013-01-25 09:02:00,13.0,9.0,-100.00,WSW,240,9.0,12.0,84,0.00,,,-99.99,,2013-01-25 15:02:00,
2013-01-25 09:12:00,18.0,11.0,-100.00,WSW,255,16.0,19.0,74,0.00,,,-99.99,,2013-01-25 15:12:00,
2013-01-25 09:22:00,19.0,12.0,-100.00,West,260,14.0,19.0,73,0.00,,,-99.99,,2013-01-25 15:22:00,
2013-01-25 09:32:00,22.0,13.0,-100.00,West,265,12.0,18.0,65,0.00,,,-99.99,,2013-01-25 15:32:00,
2013-01-25 09:42:00,22.0,13.0,-100.00,West,265,12.0,18.0,65,0.00,,,-99.99,,2013-01-25 15:42:00,
2013-01-25 09:52:00,24.0,13.0,-100.00,West,265,12.0,19.0,61,0.00,,,-99.99,,2013-01-25 15:52:00,
2013-01-25 10:03:00,24.0,13.0,-100.00,West,265,12.0,19.0,61,0.00,,,-99.99,,2013-01-25 16:03:00,
2013-01-25 10:12:00,26.0,14.0,-100.00,WNW,285,16.0,19.0,58,0.00,,,-99.99,,2013-01-25 16:12:00,
2013-01-25 10:22:00,27.0,14.0,-100.00,WNW,290,17.0,21.0,57,0.00,,,-99.99,,2013-01-25 16:22:00,
2013-01-25 10:32:00,28.0,14.0,-100.00,West,280,15.0,20.0,55,0.00,,,-99.99,,2013-01-25 16:32:00,
2013-01-25 10:42:00,28.0,14.0,-100.00,West,280,15.0,20.0,55,0.00,,,-99.99,,2013-01-25 16:42:00,
2013-01-25 10:52:00,30.0,15.0,-100.00,NW,305,12.0,18.0,53,0.00,,,-99.99,,2013-01-25 16:52:00,
2013-01-25 11:02:00,30.0,15.0,-100.00,NW,305,12.0,18.0,53,0.00,,,-99.99,,2013-01-25 17:02:00,
2013-01-25 11:12:00,33.0,17.0,-100.00,NW,305,13.0,20.0,51,0.00,,,-99.99,,2013-01-25 17:12:00,
2013-01-25 11:22:00,34.0,18.0,-100.00,NW,305,16.0,20.0,51,0.00,,,-99.99,,2013-01-25 17:22:00,
2013-01-25 11:32:00,34.0,18.0,-100.00,NW,305,16.0,20.0,51,0.00,,,-99.99,,2013-01-25 17:32:00,
2013-01-25 11:43:00,34.0,18.0,-100.00,NW,305,16.0,20.0,51,0.00,,,-99.99,,2013-01-25 17:43:00,
2013-01-25 11:52:00,36.0,19.0,-100.00,NW,325,16.0,26.0,49,0.00,,,-99.99,,2013-01-25 17:52:00,
2013-01-25 12:03:00,36.0,19.0,-100.00,NW,325,16.0,26.0,49,0.00,,,-99.99,,2013-01-25 18:03:00,
2013-01-25 12:12:00,36.0,19.0,-100.00,NW,325,16.0,26.0,49,0.00,,,-99.99,,2013-01-25 18:12:00,
2013-01-25 12:23:00,36.0,19.0,-100.00,NW,325,16.0,26.0,49,0.00,,,-99.99,,2013-01-25 18:23:00,
2013-01-25 12:33:00,39.0,20.0,-100.00,NW,310,16.0,21.0,46,0.00,,,-99.99,,2013-01-25 18:33:00,
2013-01-25 12:42:00,39.0,20.0,-100.00,NW,310,16.0,21.0,46,0.00,,,-99.99,,2013-01-25 18:42:00,
2013-01-25 12:52:00,39.0,20.0,-100.00,NW,310,16.0,22.0,46,0.00,,,-99.99,,2013-01-25 18:52:00,
2013-01-25 13:03:00,39.0,20.0,-100.00,NW,320,17.0,24.0,45,0.00,,,-99.99,,2013-01-25 19:03:00,
2013-01-25 13:12:00,40.0,20.0,-100.00,NW,305,16.0,24.0,44,0.00,,,-99.99,,2013-01-25 19:12:00,
2013-01-25 13:22:00,41.0,21.0,-100.00,NW,320,12.0,22.0,44,0.00,,,-99.99,,2013-01-25 19:22:00,
2013-01-25 13:32:00,42.0,21.0,-100.00,NW,320,14.0,24.0,42,0.00,,,-99.99,,2013-01-25 19:32:00,
2013-01-25 13:42:00,42.0,21.0,-100.00,NW,320,14.0,24.0,42,0.00,,,-99.99,,2013-01-25 19:42:00,
2013-01-25 13:52:00,42.0,20.0,-100.00,NW,315,17.0,23.0,42,0.00,,,-99.99,,2013-01-25 19:52:00,
2013-01-25 14:02:00,42.0,20.0,-100.00,NW,315,17.0,23.0,42,0.00,,,-99.99,,2013-01-25 20:02:00,
2013-01-25 14:12:00,42.0,20.0,-100.00,NW,315,17.0,23.0,42,0.00,,,-99.99,,2013-01-25 20:12:00,
2013-01-25 14:22:00,42.0,20.0,-100.00,WNW,300,17.0,24.0,41,0.00,,,-99.99,,2013-01-25 20:22:00,
2013-01-25 14:32:00,43.0,20.0,-100.00,WNW,300,18.0,24.0,40,0.00,,,-99.99,,2013-01-25 20:32:00,
2013-01-25 14:42:00,43.0,20.0,-100.00,WNW,300,18.0,24.0,40,0.00,,,-99.99,,2013-01-25 20:42:00,
2013-01-25 14:52:00,43.0,20.0,-100.00,NW,305,18.0,24.0,40,0.00,,,-99.99,,2013-01-25 20:52:00,
2013-01-25 15:02:00,43.0,20.0,-100.00,NW,305,18.0,24.0,40,0.00,,,-99.99,,2013-01-25 21:02:00,
2013-01-25 15:11:00,44.0,20.0,-100.00,NW,315,18.0,22.0,39,0.00,,,-99.99,,2013-01-25 21:11:00,
2013-01-25 15:22:00,43.0,20.0,-100.00,NW,310,21.0,27.0,39,0.00,,,-99.99,,2013-01-25 21:22:00,
2013-01-25 15:32:00,43.0,20.0,-100.00,NW,325,17.0,26.0,39,0.00,,,-99.99,,2013-01-25 21:32:00,
2013-01-25 15:42:00,43.0,20.0,-100.00,NW,325,17.0,26.0,39,0.00,,,-99.99,,2013-01-25 21:42:00,
2013-01-25 15:52:00,43.0,20.0,-100.00,NW,315,18.0,23.0,39,0.00,,,-99.99,,2013-01-25 21:52:00,
2013-01-25 16:02:00,43.0,20.0,-100.00,NW,315,18.0,23.0,39,0.00,,,-99.99,,2013-01-25 22:02:00,
2013-01-25 16:11:00,43.0,20.0,-100.00,NW,320,15.0,25.0,38,0.00,,,-99.99,,2013-01-25 22:11:00,
2013-01-25 16:22:00,43.0,20.0,-100.00,NW,320,14.0,21.0,39,0.00,,,-99.99,,2013-01-25 22:22:00,
2013-01-25 16:32:00,43.0,20.0,-100.00,NW,315,16.0,20.0,39,0.00,,,-99.99,,2013-01-25 22:32:00,
2013-01-25 16:42:00,43.0,20.0,-100.00,NW,315,16.0,20.0,39,0.00,,,-99.99,,2013-01-25 22:42:00,
2013-01-25 16:51:00,43.0,20.0,-100.00,NW,315,16.0,20.0,39,0.00,,,-99.99,,2013-01-25 22:51:00,
2013-01-25 17:02:00,43.0,20.0,-100.00,NW,315,16.0,20.0,39,0.00,,,-99.99,,2013-01-25 23:02:00,
2013-01-25 18:22:00,34.0,18.0,-100.00,NW,305,9.0,13.0,51,0.00,,,-99.99,,2013-01-26 00:22:00,
2013-01-25 18:33:00,33.0,18.0,-100.00,NW,305,9.0,11.0,53,0.00,,,-99.99,,2013-01-26 00:33:00,
2013-01-25 18:42:00,33.0,18.0,-100.00,NW,305,9.0,11.0,53,0.00,,,-99.99,,2013-01-26 00:42:00,
2013-01-25 18:53:00,33.0,18.0,-100.00,NW,305,9.0,11.0,53,0.00,,,-99.99,,2013-01-26 00:53:00,
2013-01-25 19:01:00,33.0,18.0,-100.00,NW,305,9.0,11.0,53,0.00,,,-99.99,,2013-01-26 01:01:00,
2013-01-25 19:11:00,35.0,20.0,-100.00,NW,305,9.0,13.0,54,0.00,,,-99.99,,2013-01-26 01:11:00,
2013-01-25 19:22:00,33.0,20.0,-100.00,NW,305,9.0,11.0,56,0.00,,,-99.99,,2013-01-26 01:22:00,
2013-01-25 19:32:00,31.0,19.0,-100.00,NW,315,11.0,14.0,61,0.00,,,-99.99,,2013-01-26 01:32:00,
2013-01-25 19:42:00,31.0,19.0,-100.00,NW,315,11.0,14.0,61,0.00,,,-99.99,,2013-01-26 01:42:00,
2013-01-25 19:52:00,30.0,19.0,-100.00,NW,310,7.0,9.0,63,0.00,,,-99.99,,2013-01-26 01:52:00,
2013-01-25 20:01:00,30.0,19.0,-100.00,NW,310,7.0,9.0,63,0.00,,,-99.99,,2013-01-26 02:01:00,
2013-01-25 20:11:00,29.0,19.0,-100.00,NW,315,6.0,7.0,65,0.00,,,-99.99,,2013-01-26 02:11:00,
2013-01-25 20:22:00,30.0,20.0,-100.00,NW,320,8.0,9.0,66,0.00,,,-99.99,,2013-01-26 02:22:00,
2013-01-25 20:32:00,29.0,19.0,-100.00,NW,305,9.0,11.0,67,0.00,,,-99.99,,2013-01-26 02:32:00,
2013-01-25 20:42:00,29.0,19.0,-100.00,NW,305,9.0,11.0,67,0.00,,,-99.99,,2013-01-26 02:42:00,
2013-01-25 20:52:00,29.0,20.0,-100.00,NNW,330,10.0,12.0,68,0.00,,,-99.99,,2013-01-26 02:52:00,
2013-01-25 21:02:00,29.0,20.0,-100.00,NNW,330,10.0,12.0,68,0.00,,,-99.99,,2013-01-26 03:02:00,
2013-01-25 21:11:00,29.0,20.0,-100.00,NNW,330,10.0,12.0,68,0.00,,,-99.99,,2013-01-26 03:11:00,
2013-01-25 21:22:00,27.0,19.0,-100.00,NNW,335,12.0,13.0,72,0.00,,,-99.99,,2013-01-26 03:22:00,
2013-01-25 21:31:00,26.0,19.0,-100.00,NNW,335,11.0,13.0,75,0.00,,,-99.99,,2013-01-26 03:31:00,
2013-01-25 21:42:00,26.0,19.0,-100.00,NNW,335,11.0,13.0,75,0.00,,,-99.99,,2013-01-26 03:42:00,
2013-01-25 21:52:00,26.0,19.0,-100.00,NNW,345,10.0,12.0,76,0.00,,,-99.99,,2013-01-26 03:52:00,
2013-01-25 22:02:00,26.0,19.0,-100.00,NNW,345,10.0,12.0,76,0.00,,,-99.99,,2013-01-26 04:02:00,
2013-01-25 22:12:00,25.0,19.0,-100.00,NNE,15,10.0,12.0,78,0.00,,,-99.99,,2013-01-26 04:12:00,
2013-01-25 22:21:00,25.0,20.0,-100.00,North,10,12.0,16.0,79,0.00,,,-99.99,,2013-01-26 04:21:00,
2013-01-25 22:32:00,25.0,20.0,-100.00,North,0,11.0,14.0,80,0.00,,,-99.99,,2013-01-26 04:32:00,
2013-01-25 22:42:00,25.0,20.0,-100.00,North,0,11.0,14.0,80,0.00,,,-99.99,,2013-01-26 04:42:00,
2013-01-25 22:52:00,25.0,20.0,-100.00,North,10,9.0,12.0,81,0.00,,,-99.99,,2013-01-26 04:52:00,
2013-01-25 23:03:00,25.0,20.0,-100.00,North,10,9.0,12.0,81,0.00,,,-99.99,,2013-01-26 05:03:00,
2013-01-25 23:12:00,24.0,19.0,-100.00,NNE,25,12.0,16.0,82,0.00,,,-99.99,,2013-01-26 05:12:00,
2013-01-25 23:23:00,22.0,18.0,-100.00,NNE,30,13.0,18.0,82,0.00,,,-99.99,,2013-01-26 05:23:00,
2013-01-25 23:33:00,20.0,16.0,-100.00,NNE,30,11.0,16.0,81,0.00,,,-99.99,,2013-01-26 05:33:00,
2013-01-25 23:41:00,20.0,16.0,-100.00,NNE,30,11.0,16.0,81,0.00,,,-99.99,,2013-01-26 05:41:00,
2013-01-25 23:52:00,20.0,15.0,-100.00,NNE,30,12.0,16.0,80,0.00,,,-99.99,,2013-01-26 05:52:00,